EAG5535 SBNF-SBPA

Flight info

Callsign EAG5535
Flight time 0h 49m
Altitude 36000
Route ARSIT UZ38 VUKMO
Aircraft LJ35/M-SGHRWXY/SB1

Departure

Time 2026-04-26 16:50
Airport Ministro Victor Konder International Airport (SBNF)

Arrival

Time 2026-04-26 17:40
Airport Porto Alegre-Salgado Filho International Airport (SBPA)
Time Latitude Longitude Altitude Speed Heading
2026-04-26 16:29 -26.88111 -48.65100 21 ft 0 kts 323°
2026-04-26 16:43 -26.88109 -48.65101 21 ft 1 kts 338°
2026-04-26 16:43 -26.88098 -48.65103 23 ft 5 kts 345°
2026-04-26 16:43 -26.88058 -48.65097 21 ft 7 kts 56°
2026-04-26 16:44 -26.88033 -48.65055 21 ft 7 kts 54°
2026-04-26 16:44 -26.88007 -48.65011 21 ft 7 kts 57°
2026-04-26 16:44 -26.87979 -48.64966 21 ft 7 kts 55°
2026-04-26 16:44 -26.87951 -48.64918 21 ft 8 kts 56°
2026-04-26 16:45 -26.87921 -48.64868 21 ft 8 kts 58°
2026-04-26 16:45 -26.87885 -48.64852 21 ft 4 kts 326°
2026-04-26 16:45 -26.87884 -48.64854 21 ft 0 kts 326°
2026-04-26 16:48 -26.87879 -48.64857 21 ft 3 kts 325°
2026-04-26 16:48 -26.87845 -48.64881 22 ft 9 kts 338°
2026-04-26 16:48 -26.87781 -48.64835 22 ft 15 kts 52°
2026-04-26 16:48 -26.87709 -48.64720 23 ft 21 kts 54°
2026-04-26 16:49 -26.87612 -48.64563 23 ft 27 kts 55°
2026-04-26 16:49 -26.87541 -48.64424 25 ft 7 kts 83°
2026-04-26 16:49 -26.87514 -48.64406 23 ft 7 kts 273°
2026-04-26 16:49 -26.87537 -48.64440 23 ft 0 kts 237°
2026-04-26 16:50 -26.87538 -48.64441 23 ft 2 kts 237°
2026-04-26 16:50 -26.87734 -48.64760 23 ft 108 kts 236°
2026-04-26 16:50 -26.88315 -48.65723 367 ft 173 kts 237°
2026-04-26 16:50 -26.89094 -48.66863 1655 ft 196 kts 223°
2026-04-26 16:51 -26.90357 -48.67640 2935 ft 219 kts 207°
2026-04-26 16:51 -26.91803 -48.68538 4136 ft 244 kts 221°
2026-04-26 16:51 -26.92246 -48.68948 4736 ft 245 kts 226°
2026-04-26 16:51 -26.93091 -48.70082 6290 ft 235 kts 239°
2026-04-26 16:52 -26.94278 -48.71458 7455 ft 258 kts 219°
2026-04-26 16:52 -26.95321 -48.72150 7994 ft 266 kts 213°
2026-04-26 16:52 -26.97438 -48.73623 9185 ft 271 kts 220°
2026-04-26 16:52 -26.98897 -48.74984 10101 ft 273 kts 225°
2026-04-26 16:53 -27.00347 -48.76385 10933 ft 277 kts 224°
2026-04-26 16:53 -27.01857 -48.77746 11804 ft 280 kts 223°
2026-04-26 16:53 -27.03393 -48.79108 12677 ft 283 kts 224°
2026-04-26 16:53 -27.04937 -48.80505 13549 ft 287 kts 224°
2026-04-26 16:54 -27.06496 -48.81926 14316 ft 291 kts 224°
2026-04-26 16:54 -27.08075 -48.83354 15099 ft 293 kts 224°
2026-04-26 16:54 -27.09670 -48.84799 15876 ft 296 kts 224°
2026-04-26 16:54 -27.11282 -48.86261 16649 ft 300 kts 224°
2026-04-26 16:55 -27.12914 -48.87741 17380 ft 303 kts 224°
2026-04-26 16:55 -27.14565 -48.89238 18101 ft 306 kts 224°
2026-04-26 16:55 -27.16227 -48.90746 18730 ft 309 kts 224°
2026-04-26 16:55 -27.17908 -48.92270 19363 ft 311 kts 224°
2026-04-26 16:56 -27.21258 -48.95314 20606 ft 314 kts 225°
2026-04-26 16:56 -27.22958 -48.96860 21229 ft 315 kts 225°
2026-04-26 16:56 -27.24670 -48.98417 21872 ft 318 kts 226°
2026-04-26 16:57 -27.26393 -48.99985 22614 ft 319 kts 226°
2026-04-26 16:57 -27.28128 -49.01565 23183 ft 323 kts 226°
2026-04-26 16:57 -27.31637 -49.04755 24367 ft 325 kts 227°
2026-04-26 16:58 -27.33405 -49.06368 24882 ft 329 kts 228°
2026-04-26 16:58 -27.34609 -49.07470 25209 ft 330 kts 227°
2026-04-26 16:58 -27.38791 -49.11281 26481 ft 336 kts 227°
2026-04-26 16:59 -27.40613 -49.12945 27045 ft 338 kts 227°
2026-04-26 16:59 -27.44298 -49.16311 28120 ft 344 kts 228°
2026-04-26 17:00 -27.48037 -49.19729 29122 ft 349 kts 229°
2026-04-26 17:00 -27.51834 -49.23205 30049 ft 355 kts 228°
2026-04-26 17:00 -27.53762 -49.24968 30430 ft 358 kts 229°
2026-04-26 17:01 -27.55700 -49.26741 30887 ft 358 kts 229°
2026-04-26 17:01 -27.57638 -49.28518 31286 ft 360 kts 229°
2026-04-26 17:01 -27.59586 -49.30308 31633 ft 362 kts 229°
2026-04-26 17:01 -27.61546 -49.32103 32041 ft 364 kts 229°
2026-04-26 17:02 -27.63513 -49.33909 32406 ft 365 kts 229°
2026-04-26 17:02 -27.65488 -49.35723 32796 ft 366 kts 228°
2026-04-26 17:02 -27.67464 -49.37535 33296 ft 364 kts 228°
2026-04-26 17:02 -27.69420 -49.39330 33944 ft 360 kts 229°
2026-04-26 17:03 -27.71352 -49.41106 34508 ft 356 kts 229°
2026-04-26 17:03 -27.73263 -49.42867 35128 ft 353 kts 229°
2026-04-26 17:03 -27.75138 -49.44594 35605 ft 351 kts 229°
2026-04-26 17:03 -27.77032 -49.46340 35918 ft 356 kts 229°
2026-04-26 17:04 -27.78978 -49.48144 35929 ft 367 kts 228°
2026-04-26 17:04 -27.80985 -49.49996 35936 ft 378 kts 228°
2026-04-26 17:04 -27.85159 -49.53834 35935 ft 394 kts 228°
2026-04-26 17:05 -27.89389 -49.57734 35935 ft 391 kts 228°
2026-04-26 17:05 -27.93593 -49.61624 35932 ft 390 kts 228°
2026-04-26 17:06 -27.97782 -49.65498 35935 ft 388 kts 229°
2026-04-26 17:06 -28.01962 -49.69372 35936 ft 388 kts 228°
2026-04-26 17:07 -28.06128 -49.73233 35942 ft 386 kts 229°
2026-04-26 17:07 -28.10279 -49.77088 35932 ft 386 kts 229°
2026-04-26 17:08 -28.14421 -49.80935 35937 ft 385 kts 229°
2026-04-26 17:08 -28.18558 -49.84783 35942 ft 384 kts 229°
2026-04-26 17:09 -28.21993 -49.87981 35939 ft 384 kts 229°
2026-04-26 17:09 -28.26815 -49.92476 35937 ft 383 kts 229°
2026-04-26 17:10 -28.30945 -49.96330 35939 ft 386 kts 229°
2026-04-26 17:10 -28.35116 -50.00225 35933 ft 389 kts 229°
2026-04-26 17:11 -28.39307 -50.04141 35928 ft 391 kts 229°
2026-04-26 17:11 -28.43512 -50.08079 35928 ft 392 kts 229°
2026-04-26 17:12 -28.49113 -50.13326 35927 ft 392 kts 229°
2026-04-26 17:13 -28.56129 -50.19912 35511 ft 390 kts 229°
2026-04-26 17:13 -28.60253 -50.23780 34581 ft 379 kts 230°
2026-04-26 17:14 -28.62279 -50.25690 34123 ft 375 kts 230°
2026-04-26 17:14 -28.66249 -50.29428 33225 ft 366 kts 230°
2026-04-26 17:14 -28.68204 -50.31269 32774 ft 363 kts 231°
2026-04-26 17:15 -28.72056 -50.34901 31914 ft 356 kts 231°
2026-04-26 17:15 -28.74021 -50.36632 31507 ft 357 kts 228°
2026-04-26 17:15 -28.76013 -50.38314 31105 ft 355 kts 229°
2026-04-26 17:16 -28.77985 -50.39995 30708 ft 352 kts 229°
2026-04-26 17:16 -28.79936 -50.41668 30321 ft 351 kts 229°
2026-04-26 17:16 -28.81885 -50.43329 29939 ft 348 kts 229°
2026-04-26 17:16 -28.83819 -50.44977 29479 ft 346 kts 229°
2026-04-26 17:17 -28.85745 -50.46623 29030 ft 345 kts 229°
2026-04-26 17:17 -28.87662 -50.48263 28597 ft 345 kts 228°
2026-04-26 17:17 -28.89582 -50.49904 28167 ft 345 kts 228°
2026-04-26 17:17 -28.91502 -50.51545 27737 ft 345 kts 227°
2026-04-26 17:18 -28.93422 -50.53185 27313 ft 344 kts 227°
2026-04-26 17:18 -28.95338 -50.54826 26904 ft 344 kts 227°
2026-04-26 17:18 -28.97249 -50.56463 26496 ft 344 kts 227°
2026-04-26 17:18 -28.99157 -50.58099 26102 ft 344 kts 227°
2026-04-26 17:19 -29.02988 -50.61382 25310 ft 344 kts 226°
2026-04-26 17:19 -29.04900 -50.63021 24923 ft 344 kts 226°
2026-04-26 17:19 -29.06813 -50.64663 24544 ft 344 kts 226°
2026-04-26 17:20 -29.08725 -50.66305 24171 ft 344 kts 225°
2026-04-26 17:20 -29.09344 -50.66837 24045 ft 344 kts 225°
2026-04-26 17:20 -29.12513 -50.69630 23422 ft 340 kts 230°
2026-04-26 17:20 -29.14089 -50.71603 22976 ft 335 kts 236°
2026-04-26 17:21 -29.15625 -50.73611 22538 ft 335 kts 235°
2026-04-26 17:21 -29.17167 -50.75595 22110 ft 331 kts 235°
2026-04-26 17:21 -29.18668 -50.77533 21681 ft 319 kts 235°
2026-04-26 17:21 -29.20115 -50.79418 21299 ft 312 kts 235°
2026-04-26 17:22 -29.21521 -50.81255 20924 ft 306 kts 235°
2026-04-26 17:22 -29.22914 -50.83069 20557 ft 302 kts 236°
2026-04-26 17:22 -29.24296 -50.84868 20195 ft 300 kts 235°
2026-04-26 17:22 -29.25674 -50.86663 19841 ft 299 kts 235°
2026-04-26 17:23 -29.26588 -50.87851 19601 ft 299 kts 235°
2026-04-26 17:23 -29.28426 -50.90250 19133 ft 299 kts 235°
2026-04-26 17:23 -29.29781 -50.92019 18801 ft 299 kts 235°
2026-04-26 17:23 -29.31154 -50.93809 18462 ft 298 kts 235°
2026-04-26 17:24 -29.32524 -50.95595 18121 ft 297 kts 235°
2026-04-26 17:24 -29.33883 -50.97369 17753 ft 295 kts 235°
2026-04-26 17:24 -29.35227 -50.99124 17396 ft 291 kts 235°
2026-04-26 17:24 -29.36556 -51.00861 17046 ft 290 kts 235°
2026-04-26 17:25 -29.37880 -51.02595 16671 ft 288 kts 235°
2026-04-26 17:25 -29.39218 -51.04337 16165 ft 293 kts 234°
2026-04-26 17:25 -29.40574 -51.06088 15729 ft 294 kts 234°
2026-04-26 17:25 -29.41923 -51.07831 15299 ft 291 kts 234°
2026-04-26 17:26 -29.42823 -51.08998 15010 ft 288 kts 234°
2026-04-26 17:26 -29.44140 -51.10710 14586 ft 284 kts 234°
2026-04-26 17:26 -29.45435 -51.12392 14167 ft 278 kts 234°
2026-04-26 17:26 -29.46710 -51.14049 13731 ft 276 kts 234°
2026-04-26 17:27 -29.47981 -51.15703 13239 ft 276 kts 234°
2026-04-26 17:27 -29.49232 -51.17331 12759 ft 275 kts 234°
2026-04-26 17:27 -29.50493 -51.18969 12279 ft 273 kts 233°
2026-04-26 17:27 -29.51738 -51.20587 11805 ft 266 kts 233°
2026-04-26 17:28 -29.52958 -51.22175 11332 ft 264 kts 233°
2026-04-26 17:28 -29.54186 -51.23778 10868 ft 263 kts 233°
2026-04-26 17:28 -29.55381 -51.25335 10419 ft 263 kts 233°
2026-04-26 17:28 -29.56587 -51.26906 9973 ft 262 kts 232°
2026-04-26 17:29 -29.57805 -51.28493 9497 ft 261 kts 232°
2026-04-26 17:29 -29.58601 -51.29532 9174 ft 261 kts 232°
2026-04-26 17:29 -29.60194 -51.31612 8543 ft 262 kts 232°
2026-04-26 17:29 -29.61401 -51.33186 8071 ft 262 kts 231°
2026-04-26 17:30 -29.62808 -51.34542 7589 ft 268 kts 214°
2026-04-26 17:30 -29.64515 -51.35371 7319 ft 266 kts 201°
2026-04-26 17:30 -29.66284 -51.36013 7051 ft 267 kts 201°
2026-04-26 17:30 -29.68044 -51.36665 6808 ft 264 kts 201°
2026-04-26 17:31 -29.69791 -51.37315 6573 ft 264 kts 201°
2026-04-26 17:31 -29.71539 -51.37951 6337 ft 263 kts 199°
2026-04-26 17:31 -29.73353 -51.38313 6086 ft 265 kts 191°
2026-04-26 17:31 -29.75182 -51.38617 5890 ft 266 kts 191°
2026-04-26 17:32 -29.77001 -51.38945 5695 ft 263 kts 192°
2026-04-26 17:32 -29.78808 -51.39275 5498 ft 262 kts 192°
2026-04-26 17:32 -29.80585 -51.39586 5300 ft 261 kts 192°
2026-04-26 17:32 -29.82382 -51.39903 5139 ft 261 kts 192°
2026-04-26 17:33 -29.84145 -51.40221 4940 ft 251 kts 192°
2026-04-26 17:33 -29.85841 -51.40521 4738 ft 243 kts 192°
2026-04-26 17:33 -29.87495 -51.40816 4544 ft 240 kts 192°
2026-04-26 17:34 -29.90820 -51.40702 4102 ft 238 kts 165°
2026-04-26 17:34 -29.92338 -51.40090 3891 ft 225 kts 165°
2026-04-26 17:34 -29.93791 -51.39532 3691 ft 213 kts 166°
2026-04-26 17:34 -29.95148 -51.39006 3465 ft 197 kts 165°
2026-04-26 17:35 -29.96367 -51.38523 3254 ft 177 kts 166°
2026-04-26 17:35 -29.97509 -51.38069 2897 ft 172 kts 162°
2026-04-26 17:35 -29.98446 -51.37261 2488 ft 164 kts 134°
2026-04-26 17:35 -29.98974 -51.36158 2075 ft 154 kts 107°
2026-04-26 17:36 -29.99069 -51.34945 1633 ft 149 kts 93°
2026-04-26 17:36 -29.99120 -51.33829 1493 ft 129 kts 93°
2026-04-26 17:36 -29.99153 -51.32785 1316 ft 140 kts 91°
2026-04-26 17:36 -29.99171 -51.31678 1414 ft 135 kts 92°
2026-04-26 17:37 -29.99199 -51.30604 1513 ft 135 kts 94°
2026-04-26 17:37 -29.99214 -51.29516 1598 ft 134 kts 92°
2026-04-26 17:37 -29.99234 -51.28426 1569 ft 133 kts 92°
2026-04-26 17:38 -29.99272 -51.26254 1555 ft 140 kts 89°
2026-04-26 17:38 -29.99312 -51.25119 1362 ft 141 kts 93°
2026-04-26 17:38 -29.99334 -51.24006 1062 ft 136 kts 90°
2026-04-26 17:38 -29.99355 -51.22901 845 ft 140 kts 91°
2026-04-26 17:39 -29.99372 -51.21765 658 ft 143 kts 92°
2026-04-26 17:39 -29.99403 -51.20625 401 ft 143 kts 91°
2026-04-26 17:39 -29.99423 -51.19490 234 ft 143 kts 90°
2026-04-26 17:39 -29.99444 -51.18368 58 ft 137 kts 90°
2026-04-26 17:40 -29.99455 -51.17367 21 ft 98 kts 92°
2026-04-26 17:40 -29.99464 -51.16977 22 ft 50 kts 91°
2026-04-26 17:40 -29.99463 -51.16752 29 ft 7 kts 40°
2026-04-26 17:40 -29.99400 -51.16743 26 ft 11 kts
2026-04-26 17:41 -29.99368 -51.16743 26 ft 0 kts
2026-04-26 17:41 -29.99347 -51.16742 27 ft 6 kts
2026-04-26 17:41 -29.99286 -51.16763 27 ft 13 kts 302°
2026-04-26 17:42 -29.99276 -51.16897 26 ft 20 kts 271°
2026-04-26 17:42 -29.99272 -51.17087 24 ft 27 kts 271°
2026-04-26 17:42 -29.99268 -51.17323 22 ft 32 kts 271°
2026-04-26 17:42 -29.99264 -51.17540 21 ft 21 kts 271°
2026-04-26 17:43 -29.99261 -51.17643 20 ft 0 kts 271°
2026-04-26 17:43 -29.99261 -51.17646 20 ft 3 kts 272°
2026-04-26 17:44 -29.99274 -51.17693 19 ft 10 kts 223°
2026-04-26 17:44 -29.99361 -51.17704 20 ft 16 kts 182°
2026-04-26 17:44 -29.99481 -51.17707 24 ft 18 kts 182°
2026-04-26 17:44 -29.99608 -51.17710 19 ft 16 kts 181°
2026-04-26 17:45 -29.99680 -51.17712 19 ft 9 kts 175°
2026-04-26 17:45 -29.99693 -51.17675 20 ft 5 kts 92°
2026-04-26 17:45 -29.99688 -51.17643 20 ft 3 kts 17°
2026-04-26 17:45 -29.99666 -51.17647 20 ft 3 kts 309°
2026-04-26 17:46 -29.99668 -51.17656 20 ft 1 kts 210°
2026-04-26 17:46 -29.99672 -51.17657 20 ft 0 kts 182°